STARLINK-32440, 61714

Orbit data source: Space-Track

STARLINK-32440, 61714 is a payload satellite owned by SpaceX/Seattle (US) in LEO that was launched on Wed, 30 Oct 2024 UTC via an FALCON 9 launch vehicle from the Air Force Eastern Test Range (AFETR). Payload-class satellites include a variety of spacecraft equipped with specific instruments for various scientific and technological missions. These include communications satellites like Starlink; space stations such as the ISS; scientific satellites like the Hubble; Earth observation satellites from companies like Planet Labs, Umbra, and HawkEye 360; GPS; miniature CubeSats for education and research; and military/defense satellites.

Loading next visibility...
Identifier
61714, 2024-196H
Orbit
LEO
Last TLE update
17 hours ago
Origin
Manufacturer
SpaceX/Seattle
Mission
Operational Commercial Communications
Bus & Motor
STARLINK V2M, Unknown motor
Mass
730 kg wet, ~700 kg dry
Launch date (UTC)
2024-10-30 (8 months ago)
Launch vehicle
FALCON 9
Launch site
Air Force Eastern Test Range (AFETR)
Object type
Payload
Rocket body
Debris
Shape & HBR
Box + 2 Pan, 29 m
Radar Cross Section
36.964 m², Large (>1 m²)

Expand to show TLE details & history

TLE from 17 hours ago
0 STARLINK-32440
1 61714U 24196H   25191.28975391  .00000054  00000-0  13967-4 0  9992
2 61714  53.1603 147.2925 0001300  81.9567 278.1581 15.30194145 40042
Epoch: 2025-07-10T06:57Z
TLE epoch observation values (Epoch: 2025-07-10T06:57:14.737Z)
Latitude
-0.00006°
Longitude
114.52289°
Altitude
476.006 km
Speed
7.629 km/s
True Right ascension
09h 49m 10s
True Declination
0° 00' 00"
Sunlit
Object was in daylight at epoch
Visualization orbit readout
Latitude
12.97491°
Longitude
121.05557°
Altitude
475.036 km
Speed
7.631 km/s
Apparent Right ascension
07h 09m 54s
Apparent Declination
-33° 42' 33"
Sunlit
Object is in daylight
Visualization observer readout
Local Sidereal Time
12:32:15
Azimuth
237.994° WSW
Elevation
-14.583°
Doppler factor
1
Orbital elements
Apogee altitude
476.38 km
Perigee altitude
474.598 km
Semi-major axis
6,853.626 km
Eccentricity
0.00013
Inclination
53.1603°
RAAN
147.2925°
Arg. of periapsis
81.9567°
True anomaly
Unknown
Mean anomaly
278.1581°
Eccentric anomaly
Unknown
Mean motion
3.82527 °/min
Orbital period
94.11 mins
BSTAR
0.000013967
Loading maneuver chart data...
Loading SW <> Apogee altitude chart data...
Loading historical data...
Loading historical data...
Loading historical data...
Loading historical data...
Loading historical data...
Loading historical data...
Loading historical data...

STARLINK-32440 Visibility forecast

Observer location: undefined°, undefined°

Span
Click to sort rows by Start time (UTC) header in descending order
Start Az.
Max El. time (UTC)
Max El. Az.
Max El.
End time (UTC)
End Az.
6 mins2025-07-11 00:24:03.559Z253.244° W2025-07-11 00:27:03.559Z327.824° NNW35.766°2025-07-11 00:30:03.559Z37.599° NE
4 mins2025-07-11 05:22:03.559Z345.48° N2025-07-11 05:24:03.559Z31.293° NE22.01°2025-07-11 05:26:03.559Z73.04° E
5 mins2025-07-11 07:00:03.559Z291.833° WNW2025-07-11 07:02:03.559Z220.08° SW38.541°2025-07-11 07:05:03.559Z149.243° SSE
6 mins2025-07-11 23:55:03.559Z251.176° W2025-07-11 23:57:03.559Z294.421° NW37.163°2025-07-12 00:01:03.559Z42.132° NE
|